Home   Weather   Zürich   Past weeks
Flag for Switzerland

Past Weather in Zürich, Zurich, Switzerland — Yesterday and Last 2 Weeks

Now
79 °F

Warm.


Feels Like: 80 °F
Forecast: 95 / 64 °F
Wind: 6 mph from Northeast

Location: Zuerich-Fluntern

Current Time: Jul 23, 2019 at 10:33:49 pm

Latest Report: Jul 23, 2019 at 9:00 pm


Visibility: N/A

Pressure: 30.00 "Hg

Humidity: 49%

Dew Point: 58 °F

Location of ZürichLocation

Past Weather in Zürich — Graph

°F

Zürich Temperature Yesterday

Maximum temperature yesterday: 85 °F (at 6:00 pm)
Minimum temperature yesterday: 64 °F (at 6:00 am)
Average temperature yesterday: 74 °F

High & Low Weather Summary for the Past Weeks

 TemperatureHumidityPressure
High88 °F (Jul 23, 4:00 pm)96% (Jul 15, 1:00 am)30.24 "Hg (Jul 15, 1:00 am)
Low53 °F (Jul 14, 6:00 am)27% (Jul 18, 4:00 pm)29.83 "Hg (Jul 17, 6:00 pm)
Average68 °F64%30.00 "Hg
* Reported Jul 8 9:00 pm — Jul 23 9:00 pm, Zürich. Weather by CustomWeather, © 2019

Note: Actual official high and low records may vary slightly from our data, if they occured in-between our weather recording intervals... More about our weather records

Advertising

Zürich Weather History for the Previous 24 Hours

Scroll right to see more
 ConditionsComfort  
Time TempWeatherWind HumidityBarometerVisibility
9:00 pm
Tue, Jul 23
79 °FWarm.6 mph49%30.00 "HgN/A
8:00 pm84 °FSunny.2 mph40%29.98 "HgN/A
7:00 pm87 °FPleasantly warm.3 mph34%29.98 "HgN/A
6:00 pm88 °FPleasantly warm.3 mph35%29.99 "HgN/A
5:00 pm88 °FPleasantly warm.5 mph35%30.00 "HgN/A
4:00 pm88 °FHot.3 mph36%30.01 "HgN/A
3:00 pm87 °FPleasantly warm.6 mph38%30.03 "HgN/A
2:00 pm85 °FPassing clouds.6 mph44%30.05 "HgN/A
1:00 pm83 °FWarm.3 mph51%30.07 "HgN/A
12:00 pm79 °FWarm.5 mph53%30.09 "HgN/A
11:00 am77 °FMild.3 mph59%30.11 "HgN/A
10:00 am74 °FMild.3 mph63%30.12 "HgN/A
9:00 am71 °FMild.3 mph70%30.14 "HgN/A
8:00 am68 °FPassing clouds.5 mph75%30.16 "HgN/A
7:00 am64 °FMild.5 mph87%30.17 "HgN/A
6:00 am65 °FMild.7 mph84%30.17 "HgN/A
5:00 am66 °FMild.7 mph81%30.16 "HgN/A
4:00 am66 °FMild.5 mph81%30.17 "HgN/A
3:00 am67 °FMild.3 mph77%30.17 "HgN/A
2:00 am68 °FMild.No wind72%30.17 "HgN/A
1:00 am69 °FMild.2 mph67%30.18 "HgN/A
12:00 am70 °FMild.1 mph62%30.18 "HgN/A
11:00 pm
Mon, Jul 22
72 °FMild.3 mph60%30.17 "HgN/A
10:00 pm73 °FMild.5 mph56%30.17 "HgN/A
Weather by CustomWeather, © 2019

See weather overview